[Iaude] MPEC J273: 2024 JV14 [a=1.83,e=0.62,i=8.8,H=23.9]
    mpec at cfa.harvard.edu 
    mpec at cfa.harvard.edu
       
    Sun May 12 03:18:07 EDT 2024
    
    
  
M.P.E.C. 2024-J273                                 Issued 2024 May 12, 07:16 UT
     The Minor Planet Electronic Circulars contain information on unusual
         minor planets, routine data on comets and natural satellites,
         and occasional editorial announcements.  They are published
    on behalf of Division F of the International Astronomical Union by the
          Minor Planet Center, Smithsonian Astrophysical Observatory,
                          Cambridge, MA 02138, U.S.A.
			  
             Prepared using the Tamkin Foundation Computer Network
                              MPC at CFA.HARVARD.EDU
            URL https://www.minorplanetcenter.net/    ISSN 1523-6714
                                   2024 JV14                                    
Observations:
     K24J14V* C2024 05 06.48009415 31 51.558-06 17 59.33         22.44wXEJ273F52
     K24J14V  C2024 05 06.49199215 31 50.145-06 17 56.31         21.93wXEJ273F52
     K24J14V  C2024 05 06.51575215 31 47.352-06 17 49.57         22.36wXEJ273F52
     K24J14V KC2024 05 07.32088415 30 19.706-06 14 19.93         22.56GVEJ273V06
     K24J14V KC2024 05 07.32964615 30 18.608-06 14 17.48         21.97GVEJ273V06
     K24J14V KC2024 05 07.33521615 30 17.910-06 14 16.01         21.94GVEJ273V06
     K24J14V KC2024 05 07.34078415 30 17.215-06 14 14.46         22.14GVEJ273V06
     K24J14V  C2024 05 08.43258015 28 07.045-06 09 14.94         22.33GVEJ273F52
     K24J14V  C2024 05 08.44309215 28 05.602-06 09 11.69         22.24GVEJ273F52
     K24J14V  C2024 05 08.45361415 28 04.145-06 09 09.21         21.56GVEJ273F52
     K24J14V  C2024 05 08.46413115 28 02.695-06 09 06.32         21.91GVEJ273F52
     K24J14V 1C2024 05 11.95885 15 19 28.42 -05 53 23.9          22.0 VXEJ273033
     K24J14V 1C2024 05 11.96247 15 19 27.79 -05 53 22.9          21.9 VXEJ273033
     K24J14V 1C2024 05 11.96610 15 19 27.08 -05 53 21.8          22.3 VXEJ273033
Observer details:
033 Karl Schwarzschild Observatory, Tautenburg.  Observers S. Melnikov, C.
    Hogner, F. Ludwig, M. Hartmann, B. Stecklum.  Measurer B. Stecklum.
    1.34-m f/3 Schmidt + CCD.
F52 Pan-STARRS 2, Haleakala.  Observers J. Herman, T. Lowe, P. Minguez, A.
    Schultz, I. Smith.  Measurers K. Chambers, T. de Boer, J. Fairlamb, H.
    Gao, M. Huber, C.-C. Lin, E. Magnier, Y. Ramanjooloo, R. Wainscoat, R.
    Weryk.  1.8-m Ritchey-Chretien + CCD.
V06 Catalina Sky Survey-Kuiper.  Observer H. Groeller.  Measurers T. Beuden,
    V. F. Carvajal, D. Fay, J. B. Fazekas, D. C. Fuls, A. R. Gibbs, A. D.
    Grauer, H. Groeller, J. K. Hogan, R. A. Kowalski, S. M. Larson, G. J.
    Leonard, D. Rankin, R. L. Seaman, F. C. Shelly, K. W. Wierzchos.  1.55-m
    reflector + 1K CCD.
Orbital elements:
2024 JV14                                                Earth MOID = 0.0093 AU
Epoch 2024 Mar. 31.0 TT = JDT 2460400.5                 MPC                     
M 315.18733              (2000.0)            P               Q                  
n   0.39903996     Peri.  264.25767     +0.85151295     +0.50547764             
a   1.8272240      Node    65.30782     -0.39953973     +0.79761888             
e   0.6240357      Incl.    8.82240     -0.33954925     +0.32908429             
P   2.47           H   23.99          G   0.15           U   9                  
Residuals in seconds of arc
240506 F52  0.2+  0.0     240507 V06  0.1-  0.0     240508 F52  0.2+  0.0
240506 F52  0.0   0.1-    240507 V06  0.0   0.0     240511 033  0.0   0.1-
240506 F52  0.0   0.1+    240508 F52  0.2-  0.1-    240511 033  0.4+  0.1-
240507 V06  0.0   0.1-    240508 F52  0.0   0.3+    240511 033  0.4-  0.0
240507 V06  0.0   0.0     240508 F52  0.0   0.1-
Ephemeris:
2024 JV14                a,e,i = 1.83, 0.62, 9                   q = 0.6870
Date    TT    R. A. (2000) Decl.     Delta      r    Elong.  Phase     V
2024 04 12    15 46 29.9 -07 50 45   0.5910  1.5220   144.3    22.6    24.8
...
2024 04 27    15 43 00.2 -06 58 05   0.3947  1.3805   158.1    15.8    23.5
...
2024 05 05    15 34 18.5 -06 24 19   0.3015  1.3022   165.1    11.5    22.7
...
2024 05 11    15 22 05.9 -05 57 18   0.2368  1.2425   167.8     9.9    22.0
2024 05 12    15 19 21.4 -05 52 40   0.2265  1.2324   167.7    10.0    21.9
2024 05 13    15 16 21.3 -05 48 00   0.2162  1.2224   167.4    10.4    21.8
...
2024 05 19    14 50 42.1 -05 17 48   0.1578  1.1617   160.6    16.8    21.2
...
2024 05 27    13 30 45.8 -04 06 36   0.09042 1.0805   136.4    40.3    20.5
...
2024 06 11    06 51 45.4 +04 05 09   0.09858 0.9310    29.6   147.4    26.8
A. U. Tomatic                (C) Copyright 2024 MPC           M.P.E.C. 2024-J273
    
    
More information about the Iaude
mailing list